Theta_e
310 310 309 308 308 306 305 304 304 303 302 301 300 299 300 299 299 298 298 298 298 298 297 297 297 297 297 296 296 296 296 296 297 296 297 297 297 297 297 297 297 297 297
308 307 307 306 305 304 304 303 302 302 301 299 300 299 298 298 298 298 298 297 297 297 297 297 297 296 296 296 296 296 296 296 296 297 297 297 296 297 297 298 298 298 298
306 306 305 304 304 304 303 302 300 300 300 299 298 298 298 298 298 297 297 297 297 297 296 296 296 296 296 296 295 295 295 295 296 296 296 295 296 297 297 297 297 297 297
305 304 304 304 303 302 300 299 299 299 298 298 298 298 298 297 297 297 297 296 296 296 297 297 297 296 296 295 295 295 295 296 296 296 296 297 297 296 297 297 297 297 297
304 303 303 302 300 299 299 299 299 298 298 298 298 298 298 298 297 297 296 296 296 296 296 295 295 295 296 297 296 296 297 296 296 296 297 296 297 297 297 297 297 297 297
303 302 301 299 300 300 300 299 299 299 298 298 298 298 298 297 297 296 296 296 296 294 294 295 295 295 294 295 296 297 297 297 297 297 297 297 297 297 296 296 296 296 296
302 301 300 300 300 299 299 299 299 299 299 298 298 298 297 297 296 296 296 294 293 294 294 294 294 294 295 295 295 296 296 297 298 297 297 297 297 296 297 297 297 297 296
300 300 300 300 300 299 299 299 299 298 298 298 297 297 297 296 296 295 293 293 293 293 294 294 294 294 295 295 295 295 295 296 296 296 296 296 296 297 297 297 298 298 297
300 300 300 300 299 299 299 299 298 298 297 297 297 296 296 295 293 293 293 293 293 293 293 293 294 294 295 295 295 295 296 296 296 296 296 297 298 297 297 297 298 297 297
300 300 299 299 299 298 298 298 297 297 297 296 296 295 294 292 293 293 293 293 293 293 293 294 294 294 295 295 295 295 294 295 295 295 295 295 296 295 296 296 295 295 295
299 299 299 299 298 298 297 297 297 297 296 295 295 293 292 293 293 293 293 293 293 293 293 293 293 294 294 295 295 295 294 294 295 296 294 294 294 294 294 294 294 294 294
299 299 299 298 298 297 297 296 296 296 295 294 293 292 292 292 292 292 292 293 293 294 293 293 293 293 294 295 295 294 294 294 294 293 293 293 293 293 293 292 292 295 295
299 299 298 297 297 296 296 296 295 295 292 292 292 292 291 291 291 291 292 292 293 293 293 294 294 293 293 293 292 292 293 292 291 291 291 291 292 291 291 291 292 293 293
298 298 297 297 296 295 295 294 293 291 291 292 291 291 291 290 290 290 290 291 291 292 292 292 292 292 292 292 291 290 290 290 290 290 290 290 290 290 290 290 292 293 294
298 297 296 295 294 294 292 292 291 291 291 290 290 290 289 289 289 290 291 291 291 292 291 291 290 290 290 290 290 290 290 290 290 290 290 289 289 289 289 290 291 292 292
296 295 295 294 293 292 291 291 291 291 289 289 290 290 289 289 289 290 290 291 291 290 290 290 289 289 289 290 290 289 290 289 290 289 290 289 288 289 289 290 291 292 292
294 294 293 292 291 291 291 291 290 290 288 288 289 289 288 288 289 289 290 290 290 290 289 289 289 289 289 289 289 289 289 289 289 289 289 289 289 289 289 290 292 292 293
293 293 291 291 291 290 290 290 289 288 288 287 287 288 288 289 289 289 289 289 288 288 288 289 289 289 289 289 289 288 288 288 288 289 289 289 289 289 290 291 292 293 294
293 291 288 289 289 289 290 288 288 288 287 287 287 287 287 288 288 288 288 288 288 288 288 288 288 288 288 288 288 288 288 288 288 289 289 289 289 289 291 292 295 296 294
290 289 288 288 289 289 288 288 288 288 287 287 286 286 287 288 288 287 287 288 288 288 288 288 288 288 288 288 288 288 288 288 288 288 288 288 289 291 292 293 295 294 294
289 289 288 288 289 288 288 288 288 287 286 286 286 286 287 288 287 287 287 288 287 287 287 287 287 287 288 288 287 287 288 288 288 288 288 288 290 291 292 294 295 295 296
288 288 288 288 288 288 288 287 287 286 285 285 285 285 286 286 286 287 287 288 287 287 287 287 287 287 287 287 287 287 288 288 288 288 289 289 290 292 294 295 296 297 298
287 287 287 288 288 287 286 285 286 285 285 285 285 286 286 286 287 287 287 287 287 288 288 288 287 287 287 288 288 287 287 288 289 289 289 290 292 294 294 294 297 298 299
286 287 287 288 287 286 284 285 285 285 285 285 285 286 286 287 287 287 287 287 287 287 288 287 287 287 287 288 288 288 288 290 290 289 289 292 295 295 295 296 297 298 298
286 286 287 288 286 285 285 285 285 285 285 285 285 286 286 287 287 287 287 287 287 287 287 288 288 288 288 288 288 289 290 291 290 290 292 294 296 296 296 296 298 298 299
286 286 287 286 285 285 284 285 285 285 285 285 285 286 286 286 287 287 287 287 287 288 288 289 289 289 289 289 289 290 291 292 291 292 295 296 296 296 298 299 299 300 299
Wind_Speed
16 13 12 9 7 6 5 6 6 8 9 10 11 13 11 11 12 13 15 17 18 19 20 21 23 23 25 25 26 26 27 26 30 41 28 26 25 27 28 29 30 30 31
13 11 9 8 7 5 4 3 5 5 10 10 9 10 11 12 13 15 17 18 19 21 22 24 25 25 26 27 27 28 29 29 30 36 31 28 28 29 27 25 25 23 26
10 9 7 6 4 4 3 5 6 6 7 9 10 10 12 14 15 17 18 19 20 22 23 24 26 25 27 27 28 29 30 30 32 32 35 37 30 26 27 28 29 27 30
9 7 5 3 3 3 5 8 6 7 8 9 11 13 14 16 17 18 19 20 21 22 23 25 27 28 29 30 30 30 30 30 30 32 32 32 33 37 30 28 31 26 28
5 4 4 3 4 6 5 5 7 8 9 11 13 14 15 17 18 18 19 21 21 24 26 26 27 27 27 29 33 38 38 37 37 36 35 33 32 32 28 28 28 25 24
5 4 3 3 3 4 6 7 8 10 12 13 14 16 18 18 19 20 21 22 24 26 27 27 27 31 33 27 29 30 31 32 32 30 29 33 26 26 26 26 24 24 25
3 2 2 3 5 6 7 9 11 12 13 15 16 18 19 20 19 20 22 23 24 25 27 29 29 25 26 27 26 25 25 25 25 26 27 28 28 29 25 25 24 24 25
2 3 3 4 6 8 9 10 11 12 14 16 17 18 20 20 20 21 22 23 23 25 24 26 27 29 24 28 26 30 28 28 29 29 28 30 31 29 24 25 25 27 28
2 3 5 7 8 8 10 11 12 13 15 17 18 18 19 20 21 22 21 22 23 23 25 25 25 26 26 24 27 30 29 28 27 27 26 26 26 26 26 27 31 28 26
5 5 6 8 8 10 12 13 14 15 16 17 18 18 19 21 20 20 21 22 25 25 23 23 24 25 26 24 25 25 28 30 30 31 34 25 22 24 24 25 26 28 28
6 6 7 8 10 12 13 14 15 16 17 18 18 18 18 17 21 21 22 21 24 25 26 27 27 26 24 23 23 26 29 30 28 23 23 23 26 29 31 26 29 33 30
6 7 8 9 11 13 15 15 15 16 18 18 18 18 17 21 20 22 22 20 20 23 28 30 28 25 24 27 26 27 29 28 31 32 34 32 30 28 25 28 26 19 21
7 8 9 11 12 14 15 16 16 15 16 17 17 19 23 22 23 23 19 18 19 26 24 25 25 26 26 27 28 27 24 26 27 25 24 23 20 22 25 24 23 24 23
8 9 11 13 15 15 14 13 14 15 16 17 22 22 24 27 25 21 20 24 26 25 28 26 27 27 27 27 24 23 20 19 20 21 21 22 22 23 21 20 20 20 21
9 11 13 14 13 13 12 13 15 14 17 22 22 23 27 26 23 23 24 26 26 28 27 31 30 26 24 23 22 22 21 20 21 21 18 20 20 21 20 18 19 20 22
9 11 12 13 12 13 14 15 14 20 22 18 19 20 23 23 24 23 24 24 27 26 26 26 24 23 21 21 22 23 19 21 19 19 20 21 20 20 19 19 19 20 20
10 11 12 11 12 13 14 16 22 25 19 17 17 19 21 22 22 22 24 25 25 21 21 21 21 22 23 24 23 22 21 21 19 20 20 21 20 19 19 21 20 20 23
9 12 11 12 13 13 15 19 20 23 24 27 23 20 22 20 21 23 23 23 25 23 22 21 21 22 23 23 23 22 23 21 19 19 19 20 21 21 21 21 20 23 27
9 10 13 11 12 14 16 21 19 21 22 25 26 25 21 21 23 24 20 21 23 23 23 24 23 23 23 24 24 23 21 21 19 19 20 20 21 20 23 21 22 26 30
9 12 15 13 12 13 18 19 21 23 23 24 25 27 24 26 27 28 23 24 23 23 24 24 25 24 23 24 24 22 21 20 19 20 20 20 20 20 20 20 24 30 32
11 11 14 12 12 14 19 21 21 23 25 25 27 26 24 24 28 26 27 28 27 27 27 27 27 26 24 24 25 22 21 20 19 19 19 19 18 18 18 20 25 28 30
11 11 12 12 13 15 20 21 21 24 24 26 28 28 24 25 24 26 27 28 29 28 27 27 28 26 24 24 23 23 22 20 19 19 19 19 18 16 17 19 22 26 27
11 12 12 12 13 19 22 21 22 23 24 26 27 28 28 28 27 28 29 29 28 28 29 29 30 29 25 23 22 22 21 19 17 18 18 17 16 14 16 20 22 24 26
12 12 12 13 15 21 23 22 22 22 25 26 27 28 31 30 30 30 30 30 30 30 29 29 30 28 25 22 21 21 20 16 15 16 15 14 12 13 16 20 23 27 26
13 13 13 13 20 22 23 23 23 24 26 27 27 29 30 30 31 31 32 32 33 34 35 32 27 24 22 20 19 19 16 13 14 14 12 11 9 13 18 22 27 27 22
13 13 13 16 20 21 22 24 24 26 28 29 31 31 31 32 33 35 36 38 39 38 34 30 25 21 18 17 15 12 9 8 10 9 7 6 8 12 18 25 28 25 24
Wind_Direction
174 180 176 177 182 187 193 219 234 251 270 280 284 287 284 283 282 283 283 284 282 282 281 281 280 279 277 276 273 271 270 269 272 279 286 286 280 279 278 277 275 275 278
156 155 166 183 189 182 194 202 251 269 284 288 278 277 279 281 283 284 285 284 283 283 283 281 279 280 278 277 276 273 272 272 273 277 282 281 279 277 278 280 272 272 266
150 159 165 181 186 174 201 252 276 283 277 271 278 283 286 286 286 285 284 284 283 282 281 281 280 280 279 278 277 275 275 273 272 273 278 281 280 275 277 277 276 276 271
154 156 174 162 197 240 266 282 275 273 273 277 278 281 283 286 286 285 284 284 284 284 284 283 282 280 279 280 278 276 275 273 271 273 270 268 270 273 279 274 275 274 270
169 157 152 217 262 282 288 280 278 279 279 279 280 283 287 287 287 282 279 283 286 288 285 284 282 281 275 276 277 276 271 270 269 264 273 276 280 276 279 280 272 274 276
148 162 236 278 277 277 279 286 286 282 281 281 283 284 287 287 286 285 288 290 290 290 290 285 279 277 284 284 280 278 277 278 279 274 271 274 277 273 280 281 278 269 275
172 206 269 273 286 297 297 290 287 285 283 281 284 287 287 287 288 287 290 290 289 288 285 290 290 289 284 280 282 281 280 278 275 280 281 276 276 283 284 273 269 263 264
218 263 279 300 303 301 294 290 288 286 284 287 289 290 289 290 292 294 293 293 291 288 291 289 291 290 286 287 284 286 278 278 275 278 271 269 273 271 264 268 270 267 264
277 289 292 295 299 297 297 294 294 294 291 290 290 290 293 295 295 296 299 295 294 290 292 290 291 292 287 284 291 286 286 287 286 284 273 276 270 273 270 277 274 283 268
294 290 292 296 297 299 298 298 296 294 294 293 293 295 297 299 301 299 295 294 297 302 298 291 287 288 289 288 290 291 295 291 289 283 279 279 271 273 272 269 272 273 271
303 301 303 302 301 299 300 299 299 298 297 298 298 299 299 299 297 297 304 296 296 298 299 297 297 297 294 293 289 290 296 301 293 286 284 280 278 279 276 266 262 268 273
310 309 304 304 303 304 304 303 300 299 299 300 301 301 296 303 307 303 306 299 295 294 292 298 298 299 296 293 290 291 292 289 281 282 283 284 281 275 268 274 270 259 259
310 308 307 306 311 305 303 301 302 301 302 304 304 298 305 306 305 306 303 301 294 301 301 300 299 297 296 297 295 296 291 284 285 284 284 280 270 270 268 269 263 252 262
306 303 308 311 308 312 304 304 304 304 306 301 300 307 301 304 309 310 306 305 308 305 305 305 301 297 294 293 291 292 292 294 289 282 284 279 279 280 274 270 272 268 272
305 307 309 308 310 309 309 307 304 305 301 303 305 301 305 306 306 304 305 307 306 306 307 300 301 301 299 301 299 300 288 291 287 287 275 287 278 277 273 271 269 270 269
318 313 311 312 314 313 311 309 306 295 305 309 305 305 306 302 304 306 304 305 305 308 304 302 305 306 303 301 301 297 294 293 281 289 280 285 284 276 272 274 273 269 269
324 317 317 321 315 315 313 313 307 317 318 314 310 308 309 308 310 312 312 308 306 308 300 301 302 304 304 302 304 299 299 293 288 286 278 280 282 279 273 274 275 273 272
320 321 320 318 314 311 315 309 311 319 320 323 325 316 315 313 319 319 316 312 310 313 312 309 305 304 304 305 303 302 298 294 289 283 279 277 281 280 281 277 278 282 286
325 317 317 320 314 315 313 314 321 324 316 319 320 325 327 320 318 321 315 318 320 316 315 312 309 307 305 304 302 299 296 290 287 283 277 277 278 279 280 281 290 293 297
317 319 327 327 323 319 317 326 322 322 323 323 322 325 326 327 321 323 327 322 318 314 311 309 308 306 303 304 304 301 295 290 286 281 280 277 277 279 281 288 295 300 308
330 327 326 329 324 325 320 325 323 322 322 323 325 325 322 317 316 319 319 318 317 313 310 309 308 305 302 299 303 300 294 288 285 283 280 281 278 281 282 293 301 318 325
339 329 330 331 327 320 321 325 328 328 332 329 329 332 329 327 325 321 317 316 316 314 314 312 310 308 307 302 301 297 293 289 286 282 279 279 273 274 290 300 317 325 329
343 336 337 334 329 317 333 335 333 337 337 335 335 334 333 330 326 324 322 319 318 316 315 313 313 309 306 301 297 291 286 286 281 281 281 274 268 278 294 305 318 326 326
350 344 339 338 325 332 340 339 344 342 341 338 336 336 334 330 326 323 321 320 320 318 316 313 310 308 303 297 291 287 283 277 273 275 273 266 269 288 303 312 316 320 320
358 350 344 339 329 345 346 347 348 345 342 342 339 334 331 330 328 327 327 326 326 326 325 322 315 309 301 293 285 282 277 266 262 265 258 256 277 300 310 316 322 321 329
3 357 350 337 347 352 354 352 350 345 343 344 342 340 337 333 336 339 338 337 335 332 329 326 321 312 300 290 285 278 261 255 258 247 232 255 296 313 319 322 327 331 338